Regional Weather Roundup
Issued by NWS

Home | Current Version | Previous Version | Graphics & Text | Print | Product List | Glossary On
Versions: 1 2 3 4 5 6 7 8 9 10 11 12 13 14 15 16 17 18 19 20 21 22 23 24 25 26 27 28 29 30 31 32 33 34 35 36 37 38 39 40 41 42 43 44 45 46 47 48 49 50
000
ASUS45 KPSR 040810
RWRAZ

ARIZONA HOURLY REGIONAL WEATHER ROUNDUP
NATIONAL WEATHER SERVICE PHOENIX AZ
100 AM MST WED MAY 04 2016

NOTE: FAIR INDICATES FEW OR NO CLOUDS BELOW 12,000 FEET WITH NO
SIGNIFICANT WEATHER AND/OR OBSTRUCTIONS TO VISIBILITY.

AZZ001>003-036-040900-
NORTHWEST ARIZONA

CITY           SKY/WX    TMP DP  RH WIND       PRES   REMARKS
BULLHEAD CITY  CLEAR     77  37  24 N3        29.89S
KINGMAN        CLEAR     67  32  27 SE17      30.02S
$$

AZZ004>008-015-016-018-040900-
NORTH CENTRAL ARIZONA

CITY           SKY/WX    TMP DP  RH WIND       PRES   REMARKS
GRAND CANYON   PTCLDY    42  31  64 E5        30.25S
WILLIAMS       PTCLDY    45  30  57 S9        30.30S
PRESCOTT       PTCLDY    53  36  52 S6        30.13S
FLAGSTAFF      PTCLDY    36  32  85 NE3       30.26S
PAYSON         CLEAR     63  27  25 E5        30.15S
PAGE           CLEAR     58  31  35 W3        30.14S
$$

AZZ009>014-017-040900-
NORTHEAST ARIZONA

CITY           SKY/WX    TMP DP  RH WIND       PRES   REMARKS
WINSLOW        PTCLDY    48  43  82 SW3       30.18S
SAINT JOHNS    CLEAR     44  33  65 CALM      30.22S
WINDOW ROCK    CLEAR     40  32  73 CALM      30.31R
SHOW LOW       CLEAR     45  32  61 CALM      30.23F
$$

AZZ023-040900-
GREATER PHOENIX AREA

CITY           SKY/WX    TMP DP  RH WIND       PRES   REMARKS
PHOENIX        CLEAR     75  37  25 SE3       29.86S
BUCKEYE        CLEAR     68  36  30 CALM      29.89R
LUKE AFB       CLEAR     69  40  34 N6        29.86S
DEER VALLEY    CLEAR     75  33  21 NE5       29.88S
SCOTTSDALE     CLEAR     74  36  25 CALM      29.90S
MESA-GATEWAY   CLEAR     64  37  36 SE7       29.89S
$$

AZZ027-028-040900-
SOUTHWEST MARICOPA COUNTY AND PINAL COUNTY

CITY           SKY/WX    TMP DP  RH WIND       PRES   REMARKS
CASA GRANDE    CLEAR     66  30  26 S5        29.93
GILA BEND      FAIR      73  27  18 S9        29.85S
$$

AZZ503-504-507>509-040900-
SOUTHEAST ARIZONA

CITY           SKY/WX    TMP DP  RH WIND       PRES   REMARKS
TUCSON         CLEAR     68  24  19 SE6       29.99S
DAVIS-MONTHAN  CLEAR     70  28  21 S6        29.96S
NOGALES        CLEAR     57  26  30 NE5       30.05S
SIERRA VISTA   CLEAR     59  23  25 S5        30.11S
DOUGLAS        CLEAR     71  26  18 E13       30.08S
SAFFORD        CLEAR     65  25  22 SE8       30.05R
$$

AZZ020-021-025-026-031-040900-
SOUTHWEST ARIZONA

CITY           SKY/WX    TMP DP  RH WIND       PRES   REMARKS
YUMA           CLEAR     76  37  24 CALM      29.83S
$$

CAZ031-033-041-043-047-048-061-040900-
SOUTHERN CALIFORNIA

CITY           SKY/WX    TMP DP  RH WIND       PRES   REMARKS
DOWNTOWN L.A.  CLEAR     58  54  86 CALM      29.96R
L.A. AIRPORT   MOCLDY    57  53  86 W7        29.97R
SAN DIEGO      CLOUDY    62  54  74 SW3       29.99S
BURBANK        CLEAR     59  53  80 S3        29.96R
ONTARIO        PTCLDY    60  54  80 SW5       29.95F
RIVERSIDE      CLEAR     60  52  74 W3        29.96S
PALM SPRINGS   CLEAR     75  43  31 CALM      29.88S
EL CENTRO NAS  CLEAR    N/A N/A N/A W9        29.83F
IMPERIAL       CLEAR     74  42  31 CALM      29.82R
BLYTHE         CLEAR     73  26  17 NE3       29.84R
NEEDLES        CLEAR     76  37  24 W9        29.87S
$$

NVZ020-UTZ003-040900-
SOUTHERN NEVADA-UTAH

CITY           SKY/WX    TMP DP  RH WIND       PRES   REMARKS
LAS VEGAS      PTCLDY    71  37  28 S3        29.92R
SALT LAKE CITY CLEAR     56  38  50 SE7       30.16S
$$

NMZ009-TXZ055-040900-
NEW MEXICO-WEST TEXAS

CITY           SKY/WX    TMP DP  RH WIND       PRES   REMARKS
ALBUQUERQUE    CLEAR     59  28  30 E7        30.28R
EL PASO        CLEAR     66  33  29 VRB6      30.17R
$$


........................KEY........................
SKY/WX - SKY CONDITION/WEATHER
TMP    - TEMPERATURE IN FAHRENHEIT
DP     - DEW POINT IN FAHRENHEIT
RH     - RELATIVE HUMIDITY IN PERCENT
WIND   - DIRECTION AND SPEED IN MILES PER HOUR (MPH)
VRB    - VARIABLE WIND DIRECTION
PRES   - MEAN SEA LEVEL PRESSURE IN INCHES OF MERCURY
         F - FALLING PRESSURE   R - RISING PRESSURE
         S - STEADY PRESSURE
VSB    - VISIBILITY IN MILES
HX     - HEAT INDEX IN FAHRENHEIT
WCI    - WIND CHILL INDEX IN FAHRENHEIT
TC     - TEMPERATURE IN CELSIUS WHICH IS ALSO KNOWN AS
         TEMPERATURE IN CENTIGRADE
AFB    - AIR FORCE BASE
         LUKE AFB IS LUKE AIR FORCE BASE
         DAVIS-MONTHAN IS DAVIS-MONTHAN AIR FORCE BASE
NAS    - NAVAL AIR STATION
         EL CENTRO NAS IS EL CENTRO NAVAL AIR STATION
N/A    - NOT AVAILABLE




USA.gov is the U.S. government's official web portal to all federal, state and local government web resources and services.